EW4458 Weather Reports


time (UTC)temp
F
wind
direction
speed
knots
gust
knots
rain 1hr
in
rain 24hr
in
rain mn
in
humidity
%
barometer
mb
20260504110456 54 175 0.0 0.0 0.00 0.00 0.00 82 1016.8
20260504100418 55 195 2.6 2.6 0.00 0.00 0.00 81 1016.6
20260504081811 53 291 0.0 1.7 0.00 0.00 0.00 79 1016.9
20260504081308 53 204 3.5 4.3 0.00 0.00 0.00 79 1016.8
20260504080804 53 223 5.2 6.1 0.00 0.00 0.00 79 1016.8
20260504080301 52 289 1.7 2.6 0.00 0.00 0.00 79 1016.9
20260504070228 51 160 2.6 2.6 0.00 0.00 0.00 74 1017.1
20260504060149 47 26 0.0 0.0 0.00 0.00 0.00 77 1017.1
20260504050617 39 44 0.0 0.0 0.00 0.00 0.00 76 1017.1
20260504050114 39 46 0.0 0.0 0.00 0.00 0.00 76 1017.1
20260504045611 39 51 0.0 0.0 0.00 0.00 0.00 76 1017.1
20260504045106 40 53 0.0 0.0 0.00 0.00 0.00 76 1017.3
20260504044604 39 48 0.0 0.0 0.00 0.00 0.00 76 1017.2
20260504044100 40 50 0.0 0.0 0.00 0.00 0.00 76 1017.1
20260504043558 40 57 0.0 0.0 0.00 0.00 0.00 76 1017.1
20260504043055 39 62 0.0 0.0 0.00 0.00 0.00 76 1017.0
20260504042552 40 53 0.0 0.0 0.00 0.00 0.00 75 1017.1
20260504042049 40 67 0.0 0.0 0.00 0.00 0.00 76 1017.1
20260504041545 40 62 0.0 0.0 0.00 0.00 0.00 75 1016.9
20260504041041 39 53 0.0 0.0 0.00 0.00 0.00 74 1017.1
20260504040538 39 42 0.0 0.0 0.00 0.00 0.00 74 1017.0
20260504040035 40 41 0.0 0.0 0.00 0.00 0.00 74 1016.8
20260504035532 40 42 0.0 0.0 0.00 0.00 0.00 74 1016.8
20260504035028 40 50 0.0 0.0 0.00 0.00 0.00 73 1016.7
20260504034526 39 42 0.0 0.0 0.00 0.00 0.00 73 1016.7
20260504034023 40 41 0.0 0.0 0.00 0.00 0.00 73 1016.6
20260504033521 40 52 0.0 0.0 0.00 0.00 0.00 73 1016.6
20260504033018 40 56 0.0 0.0 0.00 0.00 0.00 73 1016.6
20260504032515 40 47 0.0 0.0 0.00 0.00 0.00 72 1016.5
20260504032011 41 50 0.0 0.0 0.00 0.00 0.00 72 1016.6
20260504031509 41 57 0.0 0.0 0.00 0.00 0.00 72 1016.4
20260504031005 40 51 0.0 0.0 0.00 0.00 0.00 71 1016.4
20260504030502 40 63 0.0 0.0 0.00 0.00 0.00 71 1016.5
20260504025958 40 48 0.0 0.0 0.00 0.00 0.00 69 1016.4
20260504025455 40 49 0.0 0.0 0.00 0.00 0.00 69 1016.3
20260504024952 41 48 0.0 0.0 0.00 0.00 0.00 69 1016.4
20260504024449 41 61 0.0 0.0 0.00 0.00 0.00 69 1016.5
20260504023946 41 54 0.0 0.0 0.00 0.00 0.00 68 1016.4
20260504023443 41 57 0.0 0.0 0.00 0.00 0.00 68 1016.4
20260504022938 41 57 0.0 0.0 0.00 0.00 0.00 68 1016.5
20260504022435 42 54 0.0 0.0 0.00 0.00 0.00 68 1016.5
20260504021931 42 56 0.0 0.0 0.00 0.00 0.00 68 1016.4
20260504021429 42 45 0.0 0.0 0.00 0.00 0.00 68 1016.4
20260504020926 42 72 0.0 0.0 0.00 0.00 0.00 67 1016.4
20260504020422 42 63 0.0 0.0 0.00 0.00 0.00 67 1016.6
20260504015919 42 54 0.0 0.0 0.00 0.00 0.00 65 1016.4
20260504015415 42 50 0.0 0.0 0.00 0.00 0.00 65 1016.3
20260504014911 43 44 0.0 0.0 0.00 0.00 0.00 65 1016.0
20260504014407 43 42 0.0 0.0 0.00 0.00 0.00 65 1016.3
20260504013904 43 50 0.0 0.0 0.00 0.00 0.00 64 1016.3
20260504013402 43 57 0.0 0.0 0.00 0.00 0.00 64 1016.1
20260504012858 44 58 0.0 0.0 0.00 0.00 0.00 63 1016.0
20260504012356 44 56 0.0 0.0 0.00 0.00 0.00 62 1016.1
20260504011854 44 52 0.0 0.0 0.00 0.00 0.00 62 1016.2
20260504011350 44 64 0.0 0.0 0.00 0.00 0.00 62 1016.2
20260504010846 44 60 0.0 0.0 0.00 0.00 0.00 62 1016.0
20260504010342 44 48 0.0 0.0 0.00 0.00 0.00 62 1015.9
20260504005839 44 47 0.0 0.0 0.00 0.00 0.00 59 1016.1
20260504005336 45 49 0.0 0.0 0.00 0.00 0.00 57 1015.9
20260504004833 46 50 0.0 0.0 0.00 0.00 0.00 56 1015.7
20260504004331 47 52 0.0 0.0 0.00 0.00 0.00 57 1015.8
20260504003827 47 55 0.0 0.0 0.00 0.00 0.00 58 1015.7
20260504003324 48 59 0.0 0.0 0.00 0.00 0.00 56 1015.8
20260504002821 48 55 0.0 0.0 0.00 0.00 0.00 55 1015.5
20260504002317 49 48 0.0 0.0 0.00 0.00 0.00 52 1015.6
20260504001815 50 36 0.0 0.0 0.00 0.00 0.00 52 1015.6
20260504001312 50 40 0.0 0.0 0.00 0.00 0.00 50 1015.6
20260504000809 51 42 0.0 0.0 0.00 0.00 0.00 48 1015.2
20260504000306 52 43 0.0 0.0 0.00 0.00 0.00 45 1015.4
20260503235804 53 47 0.0 0.0 0.00 0.00 0.00 45 1015.4
20260503235301 55 47 0.0 0.0 0.00 0.00 0.00 43 1015.2
20260503234759 56 41 0.0 0.0 0.00 0.00 0.00 43 1015.0
20260503234256 57 334 0.9 1.7 0.00 0.00 0.00 39 1015.1
20260503233754 57 19 0.0 1.7 0.00 0.00 0.00 38 1015.3
20260503233249 58 17 0.9 1.7 0.00 0.00 0.00 38 1014.9
20260503232746 58 29 0.0 0.0 0.00 0.00 0.00 37 1015.2
20260503232243 59 357 0.0 0.0 0.00 0.00 0.00 36 1015.2
20260503231741 59 334 1.7 1.7 0.00 0.00 0.00 34 1015.3
20260503231238 59 51 0.0 0.0 0.00 0.00 0.00 35 1015.0
20260503230734 60 65 0.9 1.7 0.00 0.00 0.00 34 1015.2
20260503230232 60 13 1.7 2.6 0.00 0.00 0.00 34 1015.3
20260503225729 60 279 1.7 1.7 0.00 0.00 0.00 34 1015.3
20260503225229 61 301 4.3 6.1 0.00 0.00 0.00 33 1015.0
20260503224726 61 280 4.3 7.8 0.00 0.00 0.00 32 1015.0
20260503224224 61 267 6.1 8.7 0.00 0.00 0.00 31 1015.2
20260503223721 61 283 3.5 8.7 0.00 0.00 0.00 31 1015.1
20260503223219 62 39 0.0 0.0 0.00 0.00 0.00 32 1015.2
20260503222715 61 45 2.6 4.3 0.00 0.00 0.00 31 1014.9
20260503222213 62 317 6.1 10.4 0.00 0.00 0.00 30 1015.2
20260503221711 62 341 2.6 2.6 0.00 0.00 0.00 30 1015.2
20260503221209 62 282 4.3 6.1 0.00 0.00 0.00 31 1015.2
20260503220705 62 13 8.7 12.2 0.00 0.00 0.00 30 1015.3
20260503220201 62 264 4.3 6.1 0.00 0.00 0.00 31 1015.1
20260503215658 62 277 4.3 6.1 0.00 0.00 0.00 31 1015.1
20260503215155 62 285 7.8 10.4 0.00 0.00 0.00 31 1015.3
20260503214654 62 293 9.6 13.0 0.00 0.00 0.00 31 1015.1
20260503214149 61 282 4.3 6.1 0.00 0.00 0.00 32 1015.0
20260503213649 62 317 4.3 7.8 0.00 0.00 0.00 32 1015.0
20260503213145 61 44 8.7 14.8 0.00 0.00 0.00 31 1015.0
20260503212643 62 252 11.3 13.0 0.00 0.00 0.00 31 1015.1
20260503212140 63 327 2.6 4.3 0.00 0.00 0.00 30 1015.1
20260503211638 62 252 3.5 6.1 0.00 0.00 0.00 30 1015.0
20260503211132 62 283 7.8 12.2 0.00 0.00 0.00 30 1015.0
20260503210629 62 337 2.6 6.1 0.00 0.00 0.00 31 1015.0
20260503210126 62 232 1.7 2.6 0.00 0.00 0.00 32 1015.3
20260503205622 61 347 8.7 10.4 0.00 0.00 0.00 32 1015.1
20260503205118 61 9 6.1 8.7 0.00 0.00 0.00 32 1015.1
20260503204615 62 74 4.3 7.8 0.00 0.00 0.00 32 1015.0
20260503204113 61 57 4.3 7.8 0.00 0.00 0.00 32 1015.1
20260503203609 61 12 14.8 16.5 0.00 0.00 0.00 30 1015.2
20260503203107 61 21 10.4 14.8 0.00 0.00 0.00 31 1015.4
20260503202604 61 351 11.3 16.5 0.00 0.00 0.00 31 1015.3
20260503202102 62 314 6.1 8.7 0.00 0.00 0.00 30 1015.2
20260503201600 62 287 4.3 8.7 0.00 0.00 0.00 31 1015.4
20260503201057 62 244 13.0 22.6 0.00 0.00 0.00 30 1015.6
20260503200553 62 311 4.3 6.1 0.00 0.00 0.00 31 1015.4
20260503200050 61 277 4.3 4.3 0.00 0.00 0.00 32 1015.4
20260503195547 61 252 7.0 13.0 0.00 0.00 0.00 33 1015.4
20260503195044 61 288 7.0 8.7 0.00 0.00 0.00 32 1015.5
20260503194541 61 36 10.4 14.8 0.00 0.00 0.00 32 1015.5
20260503194041 61 69 6.1 7.8 0.00 0.00 0.00 31 1015.8
20260503193538 60 325 8.7 20.9 0.00 0.00 0.00 32 1015.9
20260503193033 59 7 6.1 8.7 0.00 0.00 0.00 32 1015.7
20260503192529 60 22 4.3 7.8 0.00 0.00 0.00 33 1015.9
20260503192025 61 301 11.3 13.0 0.00 0.00 0.00 31 1015.7
20260503191522 60 330 5.2 6.1 0.00 0.00 0.00 31 1016.0
20260503191019 60 24 24.3 29.5 0.00 0.00 0.00 31 1016.0
20260503190516 60 292 13.0 14.8 0.00 0.00 0.00 31 1016.1
20260503190014 60 69 7.8 10.4 0.00 0.00 0.00 32 1016.0
20260503185510 60 313 5.2 12.2 0.00 0.00 0.00 31 1016.1
20260503185009 61 308 11.3 16.5 0.00 0.00 0.00 30 1015.9
20260503184506 60 40 6.1 7.8 0.00 0.00 0.00 31 1015.9
20260503184002 60 308 7.8 8.7 0.00 0.00 0.00 30 1016.2
20260503183459 59 346 4.3 6.1 0.00 0.00 0.00 32 1016.2
20260503182956 58 300 9.6 13.0 0.00 0.00 0.00 32 1016.3
20260503182455 60 325 7.0 7.8 0.00 0.00 0.00 32 1016.4
20260503181952 60 284 4.3 7.8 0.00 0.00 0.00 30 1016.4
20260503181449 59 16 5.2 8.7 0.00 0.00 0.00 32 1016.5
20260503180945 59 299 4.3 7.8 0.00 0.00 0.00 31 1016.4
20260503180443 58 61 4.3 7.8 0.00 0.00 0.00 31 1016.5
20260503175940 59 25 4.3 7.8 0.00 0.00 0.00 29 1016.2
20260503175438 58 224 5.2 8.7 0.00 0.00 0.00 32 1016.4
20260503174938 58 92 3.5 6.1 0.00 0.00 0.00 31 1016.8
20260503174438 57 304 6.1 8.7 0.00 0.00 0.00 31 1016.6
20260503173938 58 274 16.5 20.9 0.00 0.00 0.00 31 1016.5
20260503173434 58 43 11.3 18.2 0.00 0.00 0.00 32 1016.5
20260503172931 58 2 7.0 8.7 0.00 0.00 0.00 33 1016.8
20260503172428 58 60 7.0 10.4 0.00 0.00 0.00 33 1016.7
20260503171924 57 49 9.6 13.0 0.00 0.00 0.00 33 1016.7
20260503171421 57 290 10.4 14.8 0.00 0.00 0.00 34 1016.6
20260503170919 57 234 4.3 6.1 0.00 0.00 0.00 34 1016.6
20260503170415 57 164 1.7 2.6 0.00 0.00 0.00 34 1016.7
20260503150807 53 32 10.4 14.8 0.00 0.00 0.00 43 1017.2
20260503150303 55 264 2.6 4.3 0.00 0.00 0.00 41 1017.0
20260503140228 52 339 7.0 10.4 0.00 0.00 0.00 46 1016.8
20260503131157 51 80 7.8 13.0 0.00 0.00 0.00 51 1016.7
20260503130654 51 313 7.8 12.2 0.00 0.00 0.00 50 1016.7
20260503130152 51 359 6.1 7.8 0.00 0.00 0.00 52 1016.8
20260503120117 49 359 4.3 6.1 0.00 0.00 0.00 59 1015.9